Weather History for KPMD - April, 2011

Change the Weather History Date:

Wednesday, April 27, 2011

  Actual Average Record
Temperature  
Mean Temperature 64 °F 61 °F  
Max Temperature 80 °F 76 °F 97 °F (1996)
Min Temperature 48 °F 47 °F 29 °F (1955)
Degree Days  
Heating Degree Days 1 5  
Month to date heating degree days 179 215  
Since 1 July heating degree days 2846 2836  
Cooling Degree Days 0 1  
Month to date cooling degree days 5 12  
Year to date cooling degree days 6 14  
Growing Degree Days 14 (Base 50)    
Moisture  
Dew Point 27 °F    
Average Humidity 31    
Maximum Humidity 45    
Minimum Humidity 16    
Precipitation  
Precipitation 0.00 in 0.01 in 0.13 in (1953)
Month to date precipitation 0.01 0.44  
Year to date precipitation 2.34 4.95  
Since 1 July precipitation 7.72  
Snow  
Snow 0.00 in - T in (1970)
Month to date snowfall 0.0  
Since 1 July snowfall 0.0  
Snow Depth 0.00 in    
Sea Level Pressure  
Sea Level Pressure 30.03 in    
Wind  
Wind Speed 9 mph (WNW)    
Max Wind Speed 29 mph    
Max Gust Speed 32 mph    
Visibility 10 miles    
Events      
T = Trace of Precipitation, MM = Missing Value Source: NWS Daily Summary

Daily Weather History Graph

Daily Weather History Graph

Search for Another Location

Airport or City:

Trip Planner

Search our weather history database for the weather conditions in past years. The results will help you decide how hot, cold, wet, or windy it might be!

Date:

Astronomy

Apr. 27, 2011 Rise Set
Actual Time 6:06 AM PDT 7:33 PM PDT
Civil Twilight 5:40 AM PDT 8:00 PM PDT
Nautical Twilight 5:08 AM PDT 8:32 PM PDT
Astronomical Twilight 4:34 AM PDT 9:06 PM PDT
Moon 3:00 AM PDT (4/27) 2:51 PM PDT (4/27)
Length of Visible Light 14h 20m
Length of Day
13h 27m
Waning Crescent, 25% of the Moon is Illuminated
Apr 27
Waning Crescent
May 2
New
May 10
First Quarter
May 17
Full
May 24
Last Quarter

Hourly Weather History & Observations

Time (PDT) Temp. Dew Point Humidity Pressure Visibility Wind Dir Wind Speed Gust Speed Precip Events Conditions
12:53 AM 54.0 °F 32.0 °F 43% 30.03 in 10.0 mi WNW 15.0 mph - N/A   Clear
1:53 AM 53.1 °F 30.9 °F 43% 30.01 in 10.0 mi West 10.4 mph - N/A   Clear
2:53 AM 53.1 °F 28.0 °F 38% 30.00 in 10.0 mi WNW 17.3 mph - N/A   Clear
3:53 AM 53.1 °F 27.0 °F 37% 29.99 in 10.0 mi WNW 19.6 mph 26.5 mph N/A   Clear
4:53 AM 52.0 °F 23.0 °F 32% 29.99 in 10.0 mi West 10.4 mph - N/A   Clear
5:53 AM 50.0 °F 19.9 °F 31% 30.01 in 10.0 mi West 4.6 mph - N/A   Clear
6:53 AM 51.8 °F 19.4 °F 28% 30.07 in 10.0 mi WSW 4.6 mph - N/A   Clear
7:53 AM 57.9 °F 19.9 °F 23% 30.05 in 10.0 mi WNW 10.4 mph - N/A   Clear
8:53 AM 62.1 °F 19.0 °F 19% 30.06 in 10.0 mi NNW 8.1 mph - N/A   Clear
9:53 AM 64.9 °F 21.0 °F 19% 30.06 in 10.0 mi North 6.9 mph - N/A   Clear
10:53 AM 68.0 °F 21.9 °F 17% 30.06 in 10.0 mi Calm Calm - N/A   Clear
11:53 AM 71.1 °F 24.1 °F 17% 30.06 in 10.0 mi Variable 3.5 mph - N/A   Clear
12:53 PM 73.0 °F 26.1 °F 17% 30.03 in 10.0 mi Calm Calm - N/A   Clear
1:53 PM 75.9 °F 27.0 °F 16% 30.02 in 10.0 mi Calm Calm - N/A   Clear
2:53 PM 78.1 °F 28.0 °F 16% 30.01 in 10.0 mi Variable 3.5 mph - N/A   Clear
3:53 PM 77.0 °F 28.9 °F 17% 30.00 in 10.0 mi Calm Calm - N/A   Clear
4:53 PM 78.1 °F 28.9 °F 17% 29.99 in 10.0 mi Variable 3.5 mph - N/A   Clear
5:53 PM 77.0 °F 34.0 °F 21% 29.98 in 10.0 mi WNW 13.8 mph - N/A   Clear
6:53 PM 71.1 °F 34.0 °F 26% 30.00 in 10.0 mi WNW 24.2 mph 32.2 mph N/A   Clear
7:53 PM 64.9 °F 32.0 °F 29% 30.02 in 10.0 mi West 19.6 mph 28.8 mph N/A   Clear
8:53 PM 63.0 °F 34.0 °F 34% 30.04 in 10.0 mi NW 19.6 mph - N/A   Clear
9:53 PM 62.1 °F 34.0 °F 35% 30.06 in 10.0 mi WNW 6.9 mph - N/A   Clear
10:53 PM 61.0 °F 30.9 °F 32% 30.06 in 10.0 mi NW 15.0 mph - N/A   Clear
11:53 PM 57.9 °F 32.0 °F 37% 30.06 in 10.0 mi Calm Calm - N/A   Clear